Regional Weather Roundup
Issued by NWS Wilmington, NC

Home | Current Version | Previous Version | Text Only | Print | Product List | Glossary On
Versions: 1 2 3 4 5 6 7 8 9 10 11 12 13 14 15 16 17 18 19 20 21 22 23 24 25 26 27 28 29 30 31 32 33 34 35 36 37 38 39 40 41 42 43 44 45 46 47 48 49 50
000
ASUS42 KILM 301413
RWRILM
RWRILM
REGIONAL HOURLY WEATHER ROUNDUP
NATIONAL WEATHER SERVICE WILMINGTON NC
1000 AM EDT SAT MAY 30 2015

NOTE: "FAIR" INDICATES FEW OR NO CLOUDS BELOW 12,000 FEET WITH NO
SIGNIFICANT WEATHER AND/OR OBSTRUCTIONS TO VISIBILITY.

...............WFO WILMINGTON COUNTY WARNING AREA...............

......COASTAL NC AND SC COUNTIES......

CITY           SKY/WX    TMP DP  RH WIND       PRES   REMARKS
WILMINGTON     PTSUNNY   78  67  68 CALM      30.22S
N MYRTLE BEACH MOSUNNY   79  67  66 E8        30.22R
MYRTLE BEACH   PTSUNNY   82  66  57 E12       30.23R

......INLAND NC AND SC COUNTIES.......

CITY           SKY/WX    TMP DP  RH WIND       PRES   REMARKS
LUMBERTON      PTSUNNY   82  66  58 E7        30.22S
ELIZABETHTOWN  PTSUNNY   77  66  69 CALM      30.23S
WHITEVILLE     MOSUNNY   78  66  65 NE5       30.22S
FLORENCE       MOSUNNY   80  66  62 E7        30.21S
DARLINGTON     PTSUNNY   79  64  61 SE9       30.23S

....................REST OF NORTH CAROLINA......................

.........EASTERN NC.........

CITY           SKY/WX    TMP DP  RH WIND       PRES   REMARKS
CAPE HATTERAS  MOSUNNY   77  64  64 SE3       30.24S
JACKSONVILLE   MOSUNNY   81  64  57 NE3       30.23F
MOREHEAD CITY  SUNNY     79  66  64 SE9       30.22F
KENANSVILLE    SUNNY     78  65  62 N3        30.24F
NEW BERN       MOSUNNY   79  64  60 CALM      30.24F
ELIZABETH CITY PTSUNNY   77  67  71 SW6       30.24F

.........CENTRAL NC.........

CITY           SKY/WX    TMP DP  RH WIND       PRES   REMARKS
RALEIGH DURHAM PTSUNNY   78  68  71 SW3       30.24S
ROCKY MOUNT    CLOUDY    77  68  73 CALM      30.23F
ROANOKE RAPIDS NOT AVBL
FAYETTEVILLE   MOSUNNY   78  67  68 VRB5      30.22F
HOFFMAN        PTSUNNY   77  67  72 S5        30.26F

.........WESTERN NC.........

CITY           SKY/WX    TMP DP  RH WIND       PRES   REMARKS
CHARLOTTE      PTSUNNY   77  63  61 CALM      30.23F
GREENSBORO     PTSUNNY   76  64  66 VRB6      30.23F
HICKORY        NOT AVBL
BOONE          NOT AVBL
ASHEVILLE      NOT AVBL

.....................REST OF SOUTH CAROLINA.....................

.........EASTERN SC.........

CITY           SKY/WX    TMP DP  RH WIND       PRES   REMARKS
CHARLESTON     PTSUNNY   81  68  64 E9        30.18F
BEAUFORT MCAS  RAIN      77  71  82 CALM      30.17F
HILTON HEAD    MOSUNNY   79  72  78 E7        30.17F

.........CENTRAL SC.........

CITY           SKY/WX    TMP DP  RH WIND       PRES   REMARKS
COLUMBIA       PTSUNNY   76  68  76 VRB3      30.21S
ORANGEBURG     PTSUNNY   77  68  73 E7        30.21S
SUMTER SHAW    PTSUNNY   78  67  70 SE8       30.19F

.........WESTERN SC.........

CITY           SKY/WX    TMP DP  RH WIND       PRES   REMARKS
GREENVILLE     NOT AVBL
ROCK HILL      CLOUDY    75  65  70 SW5       30.24S
ANDERSON       CLOUDY    73  66  78 SE3       30.22S
CLEMSON        NOT AVBL
GREENWOOD      MOSUNNY   76  65  68 CALM      30.23S


...................COASTAL AND OFFSHORE REPORTS..................

................LOCAL PIERS AND NC RESERVE................


STATION/POSITION TIME  SKY/WX   TEMP    WIND        PRES    VSBY
                                AIR SEA DIR/SP/G
                 (UTC)          (F)     (DEG/KT/KT) (MB)    (MI)
JOHNY MRCER PIER 1300            76 80  140/  3/  3 1022.9R
NC RESRV MASNBRO NOT AVBL
OCEAN CREST PIER 1402            77 79  110/  6/  6 1022.5R
SPRINGMAID  PIER 1300            77 79   70/  7/  8 1023.1R


................COASTAL AND OFFSHORE BUOYS................


STATION/POSITION TIME  SKY/WX   TEMP    WIND        PRES    VSBY
                                AIR SEA DIR/SP/G
                 (UTC)          (F)     (DEG/KT/KT) (MB)    (MI)
DIMNDSHOAL 41025 1350            76 79  110/  6/  8 1023.9S
WVE H/P(F/S)=  4/10 WND WVE H/P(F/S)=  2/ 4 SWL H/P/D(F/S/D)=  3/ 90/10

CAPE LOOKOUT     1400            76      50/  5/  6 1023.2F
ONSLOW BAY 41036 NOT AVBL
5 WRITEBCH 41038 1308            76 77  360/  4/  8 1023.3R
MASONBORO  41110 1319               78                N/A
WVE H/P(F/S)=  3/ 9 WND WVE H/P(F/S)=  3/ 9

WILM HARBR 41108 1311               77                N/A
WVE H/P(F/S)=  3/ 6 WND WVE H/P(F/S)=  3/ 6

27WRITEBCH 41037 1300               76   CALM  /  2   N/A
FRYING PAN 41013 1350            77 75  110/  8/ 10 1023.5R
WVE H/P(F/S)=  4/ 8 WND WVE H/P(F/S)=  2/ 4 SWL H/P/D(F/S/D)=  3/110/ 8

SUNST NRSH 41024 1308            76     120/  6/  8 1023.1
CAPRS NRSH 41029 1308            77      90/ 10/ 14 1022.3R
EDISTO     41004 1350            78 79   90/ 12/ 14 1021.6R
WVE H/P(F/S)=  5/ 8 WND WVE H/P(F/S)=  2/ 4 SWL H/P/D(F/S/D)=  3/ 8



..........OFFSHORE BUOYS BEYOND 100 NM OFFSHORE...........
.....IN A TRIANGLE---HAT TO BERMUDA TO BAHAMAS TO HAT.....


STATION/POSITION TIME  SKY/WX   TEMP    WIND        PRES    VSBY
                                AIR SEA DIR/SP/G
                 (UTC)          (F)     (DEG/KT/KT) (MB)    (MI)
150E HAT   41001 NOT AVBL
W BERMUDA  41048 1350            74 75   80/ 14/ 17 1020.7R
WVE H/P(F/S)=  8/10 WND WVE H/P(F/S)=  5/ 7 SWL H/P/D(F/S/D)=  7/ 90/10

ATLANTIC S 41049 1350            77 77   90/ 14/ 16 1019.7R
WVE H/P(F/S)=  5/ 8 WND WVE H/P(F/S)=  3/ 5 SWL H/P/D(F/S/D)=  5/ 70/ 8

E BAHAMAS  41046 1350            80 83  160/  2/  4 1017.1R
WVE H/P(F/S)=  6/ 9 SWL H/P/D(F/S/D)=  5/ 70/ 9

NE BAHAMAS 41047 1350            76 77   30/  8/ 10 1017.1R
WVE H/P(F/S)=  6/10 WND WVE H/P(F/S)=  2/ 3 SWL H/P/D(F/S/D)=  7/ 70/10

120E CANVRL41010 1320            78 79   90/ 14/ 16 1019.4R

END



USA.gov is the U.S. government's official web portal to all federal, state and local government web resources and services.